Regional Weather Roundup
Issued by NWS

Home | Current Version | Previous Version | Graphics & Text | Print | Product List | Glossary On
Versions: 1 2 3 4 5 6 7 8 9 10 11 12 13 14 15 16 17 18 19 20 21 22 23 24 25 26 27 28 29 30 31 32 33 34 35 36 37 38 39 40 41 42 43 44 45 46 47 48 49 50
000
ASUS43 KFSD 191502
RWRSD

WEATHER ROUNDUP FOR SOUTH DAKOTA
NATIONAL WEATHER SERVICE SIOUX FALLS SD
900 AM CST FRI JAN 19 2018

NOTE: "FAIR" INDICATES FEW OR NO CLOUDS BELOW 12,000 FEET WITH NO
SIGNIFICANT WEATHER AND/OR OBSTRUCTIONS TO VISIBILITY.


SDZ001>005-009-010-012>017-191600-
NORTHWEST AND NORTH CENTRAL SOUTH DAKOTA

CITY           SKY/WX    TMP DP  RH WIND       PRES   REMARKS
BUFFALO          N/A     32  26  78 NW9       29.58R WCI  24
FAITH            N/A     33  26  75 N14       29.59R WCI  23
MOBRIDGE       PTCLDY    28  24  85 N8        29.54R WCI  20
$$

SDZ012>016-024>037-041>051-057-063-072>074-191600-
SOUTHWEST AND SOUTH CENTRAL SOUTH DAKOTA

CITY           SKY/WX    TMP DP  RH WIND       PRES   REMARKS
RAPID CTY ARPT PTCLDY    39  26  59 N13       29.59R
PIERRE         MOCLDY    28  25  88 NW7       29.55R WCI  21
CUSTER         PTCLDY    43  17  35 W15G26    29.65R
ELLSWORTH AFB  PTCLDY    39  27  62 N10       29.60R
PHILIP         CLOUDY    32  28  85 NW14      29.58R WCI  22
PINE RIDGE     CLOUDY    46  26  45 N6        29.63R
SPEARFISH        N/A     45  25  45 NW18      29.64R
WINNER         FAIR      49  31  49 SW16G23   29.53F
$$

SDZ004>011-016>023-039-040-191600-
NORTHEAST SOUTH DAKOTA

CITY           SKY/WX    TMP DP  RH WIND       PRES   REMARKS
ABERDEEN       MOCLDY    21  19  92 S6        29.53S WCI  13
WATERTOWN      CLOUDY    28  25  88 S9        29.48F WCI  19
BROOKINGS      CLOUDY    29  25  85 S5        29.54F WCI  24
SISSETON         N/A     32  26  78 W7        29.49S WCI  26
$$

SDZ017-020-022-023-036>040-048>070-191600-
SOUTHEAST SOUTH DAKOTA

CITY           SKY/WX    TMP DP  RH WIND       PRES   REMARKS
SIOUX FALLS    CLOUDY    34  28  79 S10       29.56F WCI  26
HURON          MOCLDY    29  27  92 S3        29.52S
CHAMBERLAIN    MOCLDY    35  32  90 W3        29.53S
MITCHELL       CLOUDY    34  29  82 S7        29.54F WCI  28
YANKTON        CLOUDY    33  28  81 E5        29.58F WCI  29
$$

ABBREVIATIONS USED IN REMARKS
   TC - TEMPERATURE IN CELSIUS
  WCI - WIND CHILL INDEX
   HX - HEAT INDEX
  VSB - VISIBILITY





USA.gov is the U.S. government's official web portal to all federal, state and local government web resources and services.